Printer-friendly version
Follow the MPC on Twitter Follow the MPC on Facebook The MPC blog
Minor Planet Center

MPEC 2009-O05 : 2009 ND1

The following Minor Planet Electronic Circular may be linked-to from your own Web pages, but must not otherwise be redistributed electronically.

A form allowing access to any MPEC is at the bottom of this page.


Read MPEC 2009-O04 Read MPEC 2009-O06


M.P.E.C. 2009-O05                                Issued 2009 July 17, 17:41 UT

     The Minor Planet Electronic Circulars contain information on unusual
         minor planets and routine data on comets.  They are published
   on behalf of Commission 20 of the International Astronomical Union by the
          Minor Planet Center, Smithsonian Astrophysical Observatory,
                          Cambridge, MA 02138, U.S.A.

             Prepared using the Tamkin Foundation Computer Network

                              MPC@CFA.HARVARD.EDU
          URL http://www.cfa.harvard.edu/iau/mpc.html  ISSN 1523-6714

                                   2009 ND1

Observations:
     K09N01D* C2009 07 13.04484 18 09 09.05 -23 55 39.8          19.5 V EO005I08
     K09N01D  C2009 07 13.05086 18 09 08.48 -23 55 42.2          20.0 V EO005I08
     K09N01D  C2009 07 13.05697 18 09 08.10 -23 55 44.1          19.3 V EO005I08
     K09N01D  C2009 07 13.07500 18 09 06.64 -23 55 51.3          19.7 V EO005I08
     K09N01D  C2009 07 14.04731 18 07 48.64 -24 01 19.1          20.3 V EO005I08
     K09N01D  C2009 07 14.07192 18 07 46.66 -24 01 27.8          20.5 V EO005I08
     K09N01D  C2009 07 14.09635 18 07 44.71 -24 01 35.6          20.0 V EO005I08
     K09N01D  C2009 07 14.10865 18 07 43.66 -24 01 40.2          20.2 V EO005I08
     K09N01D  C2009 07 16.16984 18 05 00.38 -24 13 11.0          19.7 V EO005I08
     K09N01D  C2009 07 16.17416 18 04 59.96 -24 13 12.8          19.3 V EO005I08
     K09N01D  C2009 07 16.17851 18 04 59.57 -24 13 14.5          19.7 V EO005I08
     K09N01D  C2009 07 16.18277 18 04 59.17 -24 13 15.3          19.3 V EO005I08
     K09N01D  C2009 07 16.18705 18 04 58.89 -24 13 16.6          19.6 V EO005I08
     K09N01D  C2009 07 17.54955018 03 12.90 -24 20 48.8          19.4 R EO005E10
     K09N01D  C2009 07 17.55080018 03 12.79 -24 20 49.6          19.3 R EO005E10
     K09N01D  C2009 07 17.55201318 03 12.71 -24 20 49.9          19.4 R EO005E10
     K09N01D  C2009 07 17.55323218 03 12.59 -24 20 50.4          19.1 R EO005E10

Observer details:
E10 Siding Spring-Faulkes Telescope South.  Observer R. Miles.  2.0-m f/10.0
    Ritchey-Chretien + CCD.
I08 Alianza S4, Cerro Burek.  Observers J. L. Ortiz, P. Santos-Sanz,
    N. Morales, R. Gil-Hutton, I. de la Cueva.  Measurer I. de la Cueva.
    0.45-m f/2.8 reflector + CCD.

Orbital elements:
2009 ND1                                                 Earth MOID = 0.2821 AU
Epoch 2009 June 18.0 TT = JDT 2455000.5                 MPC
M 315.98698              (2000.0)            P               Q
n   0.20642176     Peri.  288.44756     +0.87102473     -0.45239509
a   2.8355179      Node    98.83121     +0.49107797     +0.79190319
e   0.5774247      Incl.   11.17176     +0.01258325     +0.41015608
P   4.77           H   16.8           G   0.15           U   8
Residuals in seconds of arc
090713 I08  0.1-  0.3+    090714 I08  0.6+  0.4+    090716 I08  0.1-  0.3+
090713 I08  1.1-  0.0     090714 I08  0.1+  0.0     090717 E10  0.1+  0.2+
090713 I08  0.6+  0.2+    090716 I08  1.2+  0.2+    090717 E10  0.1-  0.2-
090713 I08  1.0+  0.8-    090716 I08  0.3+  0.2-    090717 E10  0.1+  0.1-
090714 I08  0.9-  0.1+    090716 I08  0.2-  0.4-    090717 E10  0.2-  0.2-
090714 I08  0.3-  0.1-    090716 I08  1.0-  0.2+

Ephemeris:
2009 ND1                 a,e,i = 2.84, 0.58, 11                  q = 1.1982
Date    TT    R. A. (2000) Decl.     Delta      r     Elong.  Phase     V
2009 07 18    18 02.64   -24 23.3    1.275    2.239   155.2    11.0    19.8
2009 07 28    17 50.91   -25 16.1    1.270    2.169   143.0    16.4    19.9
2009 08 07    17 42.19   -26 04.7    1.284    2.098   131.4    21.2    20.0
2009 08 17    17 37.35   -26 50.0    1.312    2.027   120.8    25.4    20.1
2009 08 27    17 36.85   -27 32.9    1.349    1.955   111.1    28.8    20.2
2009 09 06    17 40.72   -28 13.9    1.390    1.882   102.3    31.5    20.2
2009 09 16    17 48.80   -28 52.4    1.431    1.810    94.4    33.6    20.3
2009 09 26    18 00.87   -29 26.6    1.468    1.739    87.3    35.2    20.3
2009 10 06    18 16.66   -29 54.0    1.501    1.668    81.0    36.3    20.3
2009 10 16    18 35.92   -30 11.1    1.528    1.598    75.3    37.1    20.2
2009 10 26    18 58.43   -30 13.9    1.547    1.531    70.3    37.7    20.2
2009 11 05    19 23.92   -29 57.8    1.558    1.467    65.9    38.1    20.1
2009 11 15    19 52.07   -29 18.2    1.563    1.406    62.1    38.5    20.0

Timothy B. Spahr             (C) Copyright 2009 MPC           M.P.E.C. 2009-O05

Read MPEC 2009-O04 Read MPEC 2009-O06


MPEC number:

Enter an MPEC number in one of the following forms:

  • 1997-B01 (the full form)
  • J97B01 (the packed version of the full form)
  • B01 (the abbreviated form)

Valid HTML 4.01!